Tracking 29033 objects as of 22-Jun-2024
HD Live streaming from Space Station
objects crossing your sky now

STARLINK-4340

Track STARLINK-4340 now!
10-day predictions
STARLINK-4340 is classified as:


NORAD ID: 53494
Int'l Code: 2022-099AF
Perigee: 568.0 km
Apogee: 572.3 km
Inclination: 97.7 °
Period: 95.9 minutes
Semi major axis: 6941 km
RCS: Unknown
Launch date: August 12, 2022
Source: United States (US)
Launch site: AIR FORCE WESTERN TEST RANGE (AFWTR)
Your satellite tracking list
Your tracking list is empty




NASA's NSSDC Master Catalog

Two Line Element Set (TLE):
1 53494U 22099AF  24173.89176957  .00001669  00000-0  13456-3 0  9990
2 53494  97.6574 294.6626 0003119 209.9371 150.1675 15.01255507102330
Source of the keplerian elements: AFSPC